Location: Sahatavy
(17.4514°S, 48.9984°E)
Time: 00:57:03
(UTC+00:00)

Daily predictions for brighter satellites

Satellite Brightness Start Highest point End
(mag) Time Altitude Azimuth Time Altitude Azimuth Time Altitude Azimuth
SL-16 R/B 4.2 00:06:35 10° SSW 00:08:49 19° SW 00:08:49 19° SW
CZ-4B R/B 3.6 00:09:18 10° SSE 00:11:16 26° SE 00:11:16 26° SE
H-2A R/B 3.0 00:22:48 56° SSW 00:22:48 56° SSW 00:26:24 10° SSW
Cosmos 1844 4.4 00:20:32 23° N 00:23:50 51° ENE 00:29:17 10° SSE
Cosmos 2181 Rocket 4.4 00:19:02 10° N 00:25:05 62° E 00:31:09 10° SSE
Cosmos 1302 Rocket 4.4 00:26:22 48° SW 00:26:22 48° SW 00:30:48 10° S
ASTRO E2 3.4 00:26:53 49° SSE 00:27:01 49° SSE 00:30:53 10° E
CZ-4B R/B 4.2 00:24:14 10° NE 00:27:32 34° ESE 00:30:52 10° S
PAYLOAD A 4.0 00:23:10 10° NNE 00:28:27 87° ESE 00:33:55 10° S
Cosmos 2263 Rocket 4.4 00:31:34 10° SW 00:31:34 10° SW 00:31:45 10° SW
MSX 3.7 00:26:41 27° N 00:29:50 67° WNW 00:35:36 10° SSW
Cosmos 1741 Rocket 3.9 00:25:41 10° SSW 00:30:58 72° WNW 00:36:15 10° N
GPS 2-12 Rocket1 3.1 00:31:51 58° SSW 00:32:16 61° S 00:36:45 10° E
Cosmos 2327 Rocket 4.4 00:26:31 10° S 00:32:54 70° W 00:39:08 10° N
CZ-2C R/B 2.4 00:29:48 10° NNE 00:34:45 78° ESE 00:39:34 10° S
IUS-1 SRM-2 4.0 00:35:16 15° NE 00:35:16 15° NE 00:36:43 10° ENE
SWIFT 4.2 00:38:07 18° NNE 00:38:33 18° NNE 00:41:30 10° ENE
Cosmos 2154 Rocket 3.8 00:32:56 10° S 00:39:12 77° W 00:45:22 10° N
Centaur AC-125 2.6 00:40:39 54° WSW 00:41:14 63° SSW 00:49:42 10° ESE
ATLAS CENTAUR R/B 3.9 00:38:50 10° S 00:41:20 28° ESE 00:45:58 10° NE
Cosmos 1437 Rocket 2.7 00:37:49 10° S 00:41:44 79° E 00:45:33 10° N
Okean 1-7 Rocket 3.4 00:38:04 10° S 00:42:30 89° W 00:46:55 10° N
Cosmos 1610 Rocket 4.4 00:37:11 10° SSW 00:43:17 62° W 00:49:25 10° N
Ariane H10-3 4.1 00:40:49 17° NNW 00:43:19 21° NNE 00:54:03 10° ENE
CZ-3B R/B 2.7 00:43:39 14° SSW 00:43:39 14° SSW 00:45:10 10° SSE
Atlas Centaur 2 1.3 00:44:50 50° WSW 00:45:54 88° NNW 00:50:47 10° ENE
CZ-3 R/B 3.5 00:30:59 25° NW 00:51:01 73° NNE 00:59:12 10° ESE
Cosmos 1689 Rocket 1.9 00:48:50 10° S 00:51:54 86° W 00:52:08 74° NNW
Meteor 1-22 Rocket 4.1 00:50:11 24° NNW 00:53:21 58° W 00:58:52 10° S
CZ-3B Rocket 1.9 00:54:50 36° W 00:56:20 76° N 01:05:07 10° ENE
Star 37E S/N 40062 3.3 01:01:33 37° S 01:01:33 37° S 01:03:05 10° SE
CZ-3A R/B 3.1 01:05:22 18° WSW 01:08:12 48° S 01:23:16 10° E
Cosmos 921 Rocket 3.4 01:05:03 10° N 01:09:09 61° E 01:13:19 10° SSE
Cosmos 1674 2.5 01:05:30 10° S 01:09:16 76° W 01:12:58 10° N
Cosmos 2341 Rocket 3.9 01:04:09 10° S 01:10:30 74° W 01:16:44 10° N
ALOS 4.2 01:07:16 10° NE 01:11:27 33° ESE 01:15:39 10° SSE
Cosmos 1733 4.1 01:13:43 24° WNW 01:14:54 28° W 01:18:15 10° SSW
Cosmos 1603 4.2 01:11:49 10° SW 01:16:51 35° WNW 01:21:52 10° NNW
GPS 2-18 Rocket1 3.1 01:18:41 20° W 01:21:11 72° S 01:24:57 10° ESE
Cosmos 292 Rocket 4.1 01:18:41 10° N 01:23:29 69° ENE 01:28:21 10° SSE
Cosmos 1626 4.3 01:20:36 10° SSE 01:23:56 31° E 01:27:14 10° NNE
Cosmos 1844 Rocket 3.7 01:20:53 16° WNW 01:24:03 26° WSW 01:28:41 10° SSW
CZ-4B R/B 4.1 01:19:21 10° NNE 01:24:33 53° ESE 01:29:53 10° S
SJ-12 4.3 01:20:32 10° NNE 01:24:39 72° ESE 01:28:49 10° S
SL-8 Rocket 4.0 01:19:32 10° S 01:25:51 80° W 01:32:04 10° N
Meteor 1-24 Rocket 3.6 01:20:38 10° S 01:26:05 76° W 01:31:41 10° N
PSLV R/B 4.0 01:26:08 10° N 01:29:45 45° W 01:33:30 10° SSW
PAYLOAD B 4.2 01:25:15 10° NNE 01:30:45 89° WNW 01:36:18 10° SSW
Nadezhda 3 Rocket 4.5 01:25:22 10° N 01:31:33 67° E 01:37:44 10° SSE
FENGYUN 3A 4.1 01:30:24 10° NNE 01:35:47 69° ESE 01:41:12 10° S
Cosmos 2366 rocket 4.0 01:30:08 10° S 01:36:29 86° W 01:42:49 10° N
Cosmos 1953 2.3 01:40:30 10° NNW 01:44:24 60° W 01:48:21 10° S
Cosmos 1943 4.2 01:43:16 10° SW 01:47:49 25° WNW 01:52:21 10° NNW
Cosmos 2058 Rocket 4.4 01:43:33 10° NNE 01:47:51 47° E 01:52:12 10° SSE
